Content
SEND FEEDBACK

Daily
Averages
Monthly
Summary
United States of America

CONCORD, NEBRASKA


Home > North America > United States > Nebraska
Elevation: 1480 feet     Latitude: 42 23N     Longitude: 096 58W

WEATHER
 
SELECT A DAY
Number of Records: 133,545;   Date Range: 7/11/05 - 12/19/14
 
SHARE

PRINT THIS DATA

[ ← Previous Day ]
WEATHER ALMANAC - JANUARY 3, 2013
[ Next Day → ]
[ °C ]   °F
Weather ElementAverageHighLow
Temperature20.1 °F29.5 °F (12:35 am)12.9 °F (8:15 am)
Dewpoint15.5 °F25.9 °F (12:35 am)7.7 °F (8:15 am)
Humidity82.6 %89 % (3:35 am)75 % (2:55 pm)
Barometer30.30 in30.39 in (10:15 am)30.21 in (12:35 am)
Wind Speed8 mph17.3 mph (3:35 am)
Wind Gust24.2 mph (5:35 am)
Weather ElementAverage
Visibility10 mi
Wind DirectionW (272.8 °)

Weather ElementTotal
Precipitation---
Heating Degree Days43.8 (Base 65)
Averaged from 68 records on January 3, 2013
WEATHER CONDITIONS BREAKOUT
WIND DIRECTION BREAKOUT
WEATHER BY HOUR - JANUARY 3, 2013
[ °C ]   °F
Local TimeTemperatureDewpointHumidityBarometerVisibilityWind DirectionWind SpeedGust SpeedPrecipitationEventsConditions
12:35 AM29.5 °F25.9 °F86 %30.21 in10.0 miNW (310°)11.5 mph16.1 mphOvercast
12:55 AM29.3 °F25.5 °F86 %30.22 in10.0 miNW (310°)11.5 mph17.3 mphOvercast
1:15 AM29.3 °F25.2 °F85 %30.22 in10.0 miNW (310°)11.5 mph16.1 mphOvercast
1:55 AM28.8 °F24.8 °F85 %30.22 in10.0 miNW (310°)10.4 mphOvercast
2:15 AM28.4 °F24.6 °F86 %30.23 in10.0 miNW (310°)10.4 mphOvercast
2:35 AM28.4 °F24.4 °F85 %30.24 in10.0 miNW (320°)12.7 mphOvercast
2:55 AM28.4 °F24.3 °F84 %30.24 in10.0 miNW (320°)11.5 mphOvercast
3:15 AM28.4 °F24.6 °F86 %30.24 in10.0 miNNW (330°)15.0 mphOvercast
3:35 AM25.7 °F23.0 °F89 %30.26 in7.0 miNorth (350°)17.3 mph23.0 mphOvercast
3:55 AM24.6 °F21.4 °F87 %30.27 in10.0 miNorth (350°)13.8 mphOvercast
4:15 AM23.9 °F20.8 °F88 %30.27 in10.0 miNNW (340°)15.0 mph18.4 mphOvercast
4:35 AM23.0 °F19.4 °F86 %30.28 in10.0 miNNW (340°)15.0 mph23.0 mphOvercast
4:55 AM22.1 °F18.5 °F86 %30.29 in10.0 miNNW (340°)13.8 mphOvercast
5:15 AM21.2 °F17.6 °F86 %30.30 in10.0 miNNW (330°)13.8 mph18.4 mphOvercast
5:35 AM19.8 °F16.2 °F86 %30.30 in10.0 miNNW (330°)16.1 mph24.2 mphOvercast
5:55 AM19.2 °F15.6 °F86 %30.31 in10.0 miNNW (340°)13.8 mphOvercast
6:15 AM18.5 °F15.3 °F87 %30.31 in10.0 miNNW (340°)12.7 mphOvercast
6:35 AM18.7 °F15.4 °F87 %30.32 in10.0 miNNW (330°)12.7 mph17.3 mphOvercast
6:55 AM19.0 °F15.6 °F87 %30.33 in10.0 miNW (320°)5.8 mph11.5 mphOvercast
7:15 AM16.5 °F10.6 °F77 %30.35 in10.0 miNW (320°)10.4 mphScattered Clouds
7:35 AM14.9 °F9.3 °F79 %30.36 in10.0 miNW (320°)11.5 mph16.1 mphClear
7:55 AM13.6 °F8.4 °F80 %30.37 in10.0 miNW (320°)8.1 mphClear
8:15 AM12.9 °F7.7 °F80 %30.38 in10.0 miNW (310°)6.9 mphClear
8:35 AM14.9 °F10.4 °F82 %30.37 in10.0 miNNW (340°)8.1 mphMostly Cloudy
8:55 AM15.6 °F10.9 °F82 %30.37 in10.0 miNNW (340°)8.1 mphOvercast
9:35 AM16.2 °F11.3 °F81 %30.37 in10.0 miNNW (330°)6.9 mphMostly Cloudy
9:55 AM16.3 °F11.3 °F81 %30.37 in10.0 miNW (310°)4.6 mphOvercast
10:15 AM17.2 °F12.4 °F81 %30.39 in10.0 miNW (310°)4.6 mphOvercast
10:35 AM18.0 °F12.6 °F79 %30.39 in10.0 miNW (310°)5.8 mphOvercast
10:55 AM18.5 °F13.1 °F79 %30.39 in10.0 miNW (310°)5.8 mphOvercast
11:15 AM19.0 °F14.0 °F81 %30.39 in10.0 miWest (270°)4.6 mphSnowLight Snow
11:35 AM19.4 °F14.5 °F81 %30.38 in10.0 miWest (280°)4.6 mphOvercast
11:55 AM20.3 °F15.1 °F80 %30.37 in10.0 miWNW (290°)6.9 mphOvercast
12:15 PM21.0 °F15.8 °F80 %30.36 in10.0 miWest (280°)6.9 mphOvercast
12:35 PM21.2 °F16.2 °F81 %30.35 in10.0 miWest (260°)4.6 mphOvercast
12:55 PM21.7 °F16.5 °F80 %30.34 in10.0 miWest (270°)5.8 mphOvercast
1:15 PM22.1 °F17.1 °F81 %30.32 in10.0 miWest (270°)4.6 mphOvercast
1:35 PM22.8 °F17.4 °F80 %30.32 in10.0 miWSW (250°)3.5 mphOvercast
1:55 PM23.9 °F18.0 °F78 %30.31 in10.0 miWest (270°)5.8 mphOvercast
2:15 PM23.9 °F17.2 °F76 %30.31 in10.0 miWest (260°)9.2 mphScattered Clouds
2:35 PM23.9 °F17.4 °F76 %30.31 in10.0 miWest (260°)10.4 mphClear
2:55 PM24.3 °F17.4 °F75 %30.31 in10.0 miWSW (250°)6.9 mphClear
3:15 PM24.4 °F17.6 °F75 %30.30 in10.0 miSW (230°)8.1 mphClear
3:55 PM24.4 °F17.6 °F75 %30.30 in10.0 miSW (230°)4.6 mphClear
4:15 PM23.7 °F17.4 °F77 %30.31 in10.0 miSSW (210°)3.5 mphClear
4:35 PM22.1 °F16.3 °F79 %30.31 in10.0 miSSW (210°)3.5 mphClear
4:55 PM21.4 °F15.8 °F79 %30.31 in10.0 miSSW (210°)3.5 mphClear
5:15 PM19.0 °F13.6 °F79 %30.31 in10.0 miSouth (190°)3.5 mphClear
5:35 PM17.2 °F13.1 °F84 %30.31 in10.0 miSouth (190°)4.6 mphClear
5:55 PM16.3 °F12.6 °F85 %30.31 in10.0 miSSW (210°)3.5 mphClear
6:15 PM14.9 °F11.1 °F85 %30.31 in10.0 miSSW (200°)3.5 mphClear
6:35 PM15.8 °F11.7 °F84 %30.31 in10.0 miSW (220°)4.6 mphClear
6:55 PM14.0 °F10.2 °F85 %30.31 in10.0 miSW (230°)5.8 mphClear
7:15 PM15.8 °F11.1 °F82 %30.30 in10.0 miSW (230°)6.9 mphClear
7:35 PM16.0 °F12.6 °F86 %30.30 in10.0 miSW (230°)5.8 mphClear
7:55 PM16.5 °F12.4 °F84 %30.29 in10.0 miSW (230°)6.9 mphClear
8:15 PM16.3 °F12.4 °F84 %30.29 in10.0 miSW (230°)6.9 mphClear
8:35 PM14.7 °F11.1 °F86 %30.28 in10.0 miSW (220°)6.9 mphClear
8:55 PM15.6 °F12.0 °F86 %30.27 in10.0 miSW (220°)5.8 mphClear
9:15 PM17.2 °F13.1 °F84 %30.26 in10.0 miSW (220°)5.8 mphClear
9:35 PM17.2 °F13.3 °F84 %30.26 in10.0 miSW (220°)6.9 mphClear
9:55 PM16.3 °F12.4 °F84 %30.26 in10.0 miSW (220°)6.9 mphClear
10:15 PM16.5 °F12.6 °F84 %30.26 in10.0 miSSW (210°)8.1 mphClear
10:35 PM17.2 °F13.1 °F84 %30.25 in10.0 miSSW (210°)6.9 mphClear
10:55 PM17.4 °F13.3 °F84 %30.25 in10.0 miSSW (210°)5.8 mphClear
11:15 PM16.9 °F12.7 °F84 %30.25 in10.0 miSSW (200°)5.8 mphClear
11:35 PM15.6 °F11.8 °F85 %30.24 in10.0 miSSW (210°)5.8 mphClear
11:55 PM17.4 °F13.1 °F83 %30.24 in10.0 miSSW (200°)3.5 mphClear
Hourly data recorded from KLCG, located miles away from Concord, Nebraska







STORIES FROM OUR PARTNERS